AMX218 MMGL-MMAA

Flight info

Callsign AMX218
Flight time 1h 10m
Altitude 35000
Route EMIRI1B EMIRI DCT ZIH J1 AVURO AVURO1B
Aircraft B738/M-SDE2E3FGHIRWXY/LB1

Departure

Time 2026-05-06 02:38
Airport Guadalajara International Airport (MMGL)

Arrival

Time 2026-05-06 03:48
Airport General Juan N. Álvarez International Airport (MMAA)
Time Latitude Longitude Altitude Speed Heading
2026-05-06 01:54 20.52495 -103.30303 5017 ft 0 kts 19°
2026-05-06 02:25 20.52479 -103.30309 5018 ft 2 kts 19°
2026-05-06 02:26 20.52464 -103.30315 5018 ft 2 kts 20°
2026-05-06 02:26 20.52449 -103.30322 5016 ft 2 kts 28°
2026-05-06 02:26 20.52440 -103.30333 5017 ft 1 kts 112°
2026-05-06 02:26 20.52440 -103.30334 5018 ft 0 kts 112°
2026-05-06 02:29 20.52440 -103.30333 5017 ft 1 kts 112°
2026-05-06 02:30 20.52434 -103.30316 5018 ft 6 kts 109°
2026-05-06 02:30 20.52417 -103.30260 5017 ft 8 kts 108°
2026-05-06 02:30 20.52405 -103.30222 5018 ft 0 kts 108°
2026-05-06 02:30 20.52404 -103.30220 5017 ft 2 kts 107°
2026-05-06 02:31 20.52402 -103.30209 5018 ft 3 kts 103°
2026-05-06 02:31 20.52393 -103.30172 5018 ft 7 kts 105°
2026-05-06 02:31 20.52375 -103.30109 5017 ft 9 kts 107°
2026-05-06 02:31 20.52371 -103.30095 5018 ft 0 kts 107°
2026-05-06 02:32 20.52371 -103.30093 5018 ft 1 kts 107°
2026-05-06 02:32 20.52355 -103.30045 5018 ft 9 kts 117°
2026-05-06 02:32 20.52269 -103.30045 5018 ft 17 kts 198°
2026-05-06 02:32 20.52159 -103.30083 5014 ft 15 kts 184°
2026-05-06 02:33 20.52097 -103.29990 5012 ft 18 kts 105°
2026-05-06 02:33 20.52070 -103.29898 5018 ft 20 kts 111°
2026-05-06 02:34 20.51855 -103.29406 5019 ft 25 kts 121°
2026-05-06 02:34 20.51752 -103.29256 5017 ft 26 kts 127°
2026-05-06 02:34 20.51596 -103.29190 5019 ft 27 kts 200°
2026-05-06 02:34 20.51509 -103.29230 5019 ft 0 kts 204°
2026-05-06 02:37 20.51499 -103.29234 5019 ft 5 kts 204°
2026-05-06 02:37 20.51465 -103.29251 5019 ft 2 kts 204°
2026-05-06 02:37 20.51424 -103.29284 5017 ft 13 kts 246°
2026-05-06 02:37 20.51461 -103.29399 5017 ft 34 kts 294°
2026-05-06 02:38 20.51666 -103.29887 5019 ft 108 kts 294°
2026-05-06 02:38 20.52056 -103.30821 5023 ft 169 kts 293°
2026-05-06 02:38 20.52591 -103.32113 5296 ft 204 kts 294°
2026-05-06 02:38 20.53225 -103.33540 5886 ft 219 kts 296°
2026-05-06 02:39 20.53897 -103.35044 6578 ft 224 kts 293°
2026-05-06 02:39 20.54518 -103.36577 7198 ft 233 kts 292°
2026-05-06 02:39 20.55186 -103.38224 7434 ft 248 kts 293°
2026-05-06 02:39 20.55888 -103.39929 7879 ft 253 kts 293°
2026-05-06 02:40 20.56605 -103.41654 8427 ft 255 kts 292°
2026-05-06 02:40 20.57333 -103.43390 8946 ft 258 kts 292°
2026-05-06 02:40 20.58068 -103.45135 9504 ft 258 kts 292°
2026-05-06 02:40 20.58798 -103.46903 10021 ft 262 kts 288°
2026-05-06 02:41 20.58999 -103.48815 10324 ft 269 kts 257°
2026-05-06 02:41 20.58210 -103.50622 10823 ft 273 kts 229°
2026-05-06 02:41 20.56699 -103.51824 11347 ft 275 kts 201°
2026-05-06 02:41 20.54809 -103.52117 11845 ft 283 kts 174°
2026-05-06 02:42 20.52795 -103.51665 12027 ft 307 kts 171°
2026-05-06 02:42 20.50589 -103.51492 12212 ft 328 kts 183°
2026-05-06 02:42 20.48278 -103.51900 12370 ft 349 kts 198°
2026-05-06 02:42 20.46060 -103.53089 12547 ft 366 kts 212°
2026-05-06 02:43 20.43876 -103.54548 12997 ft 373 kts 211°
2026-05-06 02:43 20.41500 -103.55681 13533 ft 377 kts 191°
2026-05-06 02:43 20.38900 -103.55681 14169 ft 377 kts 169°
2026-05-06 02:43 20.36431 -103.54737 14704 ft 381 kts 150°
2026-05-06 02:44 20.34336 -103.52997 15263 ft 385 kts 132°
2026-05-06 02:44 20.32796 -103.50658 15864 ft 387 kts 122°
2026-05-06 02:44 20.31415 -103.48184 16403 ft 390 kts 121°
2026-05-06 02:44 20.30072 -103.45694 16910 ft 394 kts 121°
2026-05-06 02:45 20.28710 -103.43153 17450 ft 396 kts 121°
2026-05-06 02:45 20.27332 -103.40596 17963 ft 398 kts 121°
2026-05-06 02:45 20.25941 -103.38038 18485 ft 400 kts 121°
2026-05-06 02:45 20.24534 -103.35470 18958 ft 403 kts 122°
2026-05-06 02:46 20.23113 -103.32891 19429 ft 405 kts 122°
2026-05-06 02:46 20.21678 -103.30295 19918 ft 407 kts 122°
2026-05-06 02:46 20.20236 -103.27690 20385 ft 409 kts 122°
2026-05-06 02:46 20.18785 -103.25075 20834 ft 411 kts 122°
2026-05-06 02:47 20.17329 -103.22452 21264 ft 413 kts 123°
2026-05-06 02:47 20.15860 -103.19804 21671 ft 415 kts 123°
2026-05-06 02:47 20.14388 -103.17152 22056 ft 418 kts 123°
2026-05-06 02:47 20.12904 -103.14479 22456 ft 420 kts 123°
2026-05-06 02:48 20.11415 -103.11800 22827 ft 422 kts 123°
2026-05-06 02:48 20.09919 -103.09109 23094 ft 421 kts 123°
2026-05-06 02:48 20.08423 -103.06417 23097 ft 424 kts 123°
2026-05-06 02:48 20.06921 -103.03717 23114 ft 425 kts 123°
2026-05-06 02:49 20.05404 -103.00992 23337 ft 429 kts 123°
2026-05-06 02:49 20.03888 -102.98269 23767 ft 428 kts 123°
2026-05-06 02:49 20.02368 -102.95542 24157 ft 429 kts 123°
2026-05-06 02:49 20.00846 -102.92811 24515 ft 430 kts 123°
2026-05-06 02:50 19.99313 -102.90063 24746 ft 435 kts 123°
2026-05-06 02:50 19.97763 -102.87284 25021 ft 437 kts 123°
2026-05-06 02:50 19.96210 -102.84501 25382 ft 437 kts 123°
2026-05-06 02:50 19.94675 -102.81753 25658 ft 440 kts 123°
2026-05-06 02:51 19.93106 -102.78944 25858 ft 444 kts 123°
2026-05-06 02:51 19.91525 -102.76115 26103 ft 446 kts 123°
2026-05-06 02:51 19.89936 -102.73274 26393 ft 448 kts 123°
2026-05-06 02:51 19.88342 -102.70423 26679 ft 450 kts 123°
2026-05-06 02:52 19.86737 -102.67554 26929 ft 452 kts 123°
2026-05-06 02:52 19.85125 -102.64675 27160 ft 455 kts 123°
2026-05-06 02:52 19.83502 -102.61779 27372 ft 458 kts 123°
2026-05-06 02:52 19.81705 -102.58991 27595 ft 457 kts 132°
2026-05-06 02:53 19.79452 -102.56618 27841 ft 456 kts 142°
2026-05-06 02:53 19.76873 -102.54658 28068 ft 456 kts 152°
2026-05-06 02:53 19.74033 -102.53152 28308 ft 456 kts 156°
2026-05-06 02:53 19.71144 -102.51738 28536 ft 458 kts 157°
2026-05-06 02:54 19.68276 -102.50346 28736 ft 460 kts 157°
2026-05-06 02:54 19.65322 -102.48907 28943 ft 462 kts 157°
2026-05-06 02:54 19.62443 -102.47493 29151 ft 464 kts 156°
2026-05-06 02:54 19.59512 -102.46042 29371 ft 465 kts 156°
2026-05-06 02:55 19.56580 -102.44582 29588 ft 467 kts 156°
2026-05-06 02:55 19.53633 -102.43111 29827 ft 467 kts 156°
2026-05-06 02:55 19.50691 -102.41640 30128 ft 466 kts 156°
2026-05-06 02:55 19.47753 -102.40170 30444 ft 465 kts 156°
2026-05-06 02:56 19.44831 -102.38710 30750 ft 464 kts 156°
2026-05-06 02:56 19.41899 -102.37246 31002 ft 465 kts 156°
2026-05-06 02:56 19.38977 -102.35788 31298 ft 464 kts 156°
2026-05-06 02:56 19.36082 -102.34344 31598 ft 464 kts 156°
2026-05-06 02:57 19.33156 -102.32885 31900 ft 463 kts 156°
2026-05-06 02:57 19.30238 -102.31432 32210 ft 463 kts 156°
2026-05-06 02:57 19.27318 -102.29977 32474 ft 463 kts 156°
2026-05-06 02:57 19.24401 -102.28525 32740 ft 463 kts 156°
2026-05-06 02:58 19.21491 -102.27076 33041 ft 462 kts 156°
2026-05-06 02:58 19.18581 -102.25628 33359 ft 461 kts 156°
2026-05-06 02:58 19.15679 -102.24185 33630 ft 461 kts 156°
2026-05-06 02:58 19.12810 -102.22759 33863 ft 461 kts 156°
2026-05-06 02:59 19.09904 -102.21315 34138 ft 461 kts 156°
2026-05-06 02:59 19.07006 -102.19876 34451 ft 460 kts 156°
2026-05-06 02:59 19.04111 -102.18437 34738 ft 459 kts 156°
2026-05-06 02:59 19.01217 -102.17001 34977 ft 459 kts 156°
2026-05-06 03:00 18.98336 -102.15571 35132 ft 458 kts 156°
2026-05-06 03:00 18.92577 -102.12714 35131 ft 457 kts 156°
2026-05-06 03:01 18.86862 -102.09883 35146 ft 458 kts 156°
2026-05-06 03:01 18.81108 -102.07034 35137 ft 459 kts 156°
2026-05-06 03:02 18.75308 -102.04166 35135 ft 461 kts 156°
2026-05-06 03:02 18.69489 -102.01289 35117 ft 462 kts 156°
2026-05-06 03:03 18.63751 -101.98454 35122 ft 461 kts 156°
2026-05-06 03:03 18.57938 -101.95585 35114 ft 461 kts 156°
2026-05-06 03:04 18.52176 -101.92743 35107 ft 460 kts 156°
2026-05-06 03:04 18.46382 -101.89888 35095 ft 459 kts 156°
2026-05-06 03:05 18.40584 -101.87031 35067 ft 459 kts 156°
2026-05-06 03:05 18.34833 -101.84200 34980 ft 460 kts 156°
2026-05-06 03:06 18.29081 -101.81234 34957 ft 460 kts 149°
2026-05-06 03:06 18.24210 -101.76867 34955 ft 462 kts 136°
2026-05-06 03:07 18.20483 -101.72839 34936 ft 461 kts 136°
2026-05-06 03:07 18.15980 -101.67986 34927 ft 460 kts 136°
2026-05-06 03:08 18.11478 -101.63200 34917 ft 460 kts 137°
2026-05-06 03:08 18.06982 -101.58451 34917 ft 461 kts 137°
2026-05-06 03:09 18.02445 -101.53667 34909 ft 463 kts 137°
2026-05-06 03:09 17.97899 -101.48877 34903 ft 464 kts 137°
2026-05-06 03:10 17.93326 -101.44060 34905 ft 466 kts 137°
2026-05-06 03:10 17.88737 -101.39228 34894 ft 468 kts 137°
2026-05-06 03:11 17.84143 -101.34393 34889 ft 468 kts 137°
2026-05-06 03:11 17.79531 -101.29546 34896 ft 468 kts 136°
2026-05-06 03:12 17.74929 -101.24714 34745 ft 470 kts 137°
2026-05-06 03:12 17.72600 -101.22270 34134 ft 472 kts 137°
2026-05-06 03:12 17.70295 -101.19852 33482 ft 467 kts 137°
2026-05-06 03:12 17.68008 -101.17452 32798 ft 464 kts 137°
2026-05-06 03:13 17.65734 -101.15066 32096 ft 460 kts 136°
2026-05-06 03:13 17.63474 -101.12696 31382 ft 458 kts 136°
2026-05-06 03:13 17.61224 -101.10339 30692 ft 454 kts 136°
2026-05-06 03:13 17.59043 -101.08054 30218 ft 446 kts 136°
2026-05-06 03:14 17.56862 -101.05771 29707 ft 440 kts 136°
2026-05-06 03:14 17.54710 -101.03515 29180 ft 434 kts 136°
2026-05-06 03:14 17.52588 -101.01295 28671 ft 427 kts 136°
2026-05-06 03:14 17.50561 -100.99176 28184 ft 421 kts 136°
2026-05-06 03:15 17.48503 -100.97025 27689 ft 414 kts 136°
2026-05-06 03:15 17.46477 -100.94909 27202 ft 410 kts 136°
2026-05-06 03:15 17.44442 -100.92783 26727 ft 418 kts 135°
2026-05-06 03:15 17.42351 -100.90600 26229 ft 428 kts 135°
2026-05-06 03:16 17.40255 -100.88413 25687 ft 421 kts 135°
2026-05-06 03:16 17.38197 -100.86265 25187 ft 413 kts 135°
2026-05-06 03:16 17.36181 -100.84161 24690 ft 405 kts 135°
2026-05-06 03:16 17.34223 -100.82118 24231 ft 398 kts 135°
2026-05-06 03:17 17.32282 -100.80093 23743 ft 391 kts 135°
2026-05-06 03:17 17.30368 -100.78099 23284 ft 384 kts 135°
2026-05-06 03:17 17.28489 -100.76140 22818 ft 380 kts 134°
2026-05-06 03:17 17.26628 -100.74201 22358 ft 375 kts 134°
2026-05-06 03:18 17.24785 -100.72281 21919 ft 375 kts 134°
2026-05-06 03:18 17.22918 -100.70311 21475 ft 388 kts 131°
2026-05-06 03:18 17.21427 -100.67945 21152 ft 393 kts 116°
2026-05-06 03:18 17.20213 -100.65374 20912 ft 393 kts 117°
2026-05-06 03:19 17.19001 -100.62841 20469 ft 385 kts 117°
2026-05-06 03:19 17.17802 -100.60364 19997 ft 378 kts 117°
2026-05-06 03:19 17.16619 -100.57939 19530 ft 371 kts 117°
2026-05-06 03:19 17.15452 -100.55558 19063 ft 365 kts 117°
2026-05-06 03:20 17.13166 -100.50906 18173 ft 355 kts 117°
2026-05-06 03:20 17.12073 -100.48683 17832 ft 350 kts 117°
2026-05-06 03:20 17.10975 -100.46455 17423 ft 350 kts 117°
2026-05-06 03:21 17.09846 -100.44160 16996 ft 362 kts 117°
2026-05-06 03:21 17.08680 -100.41792 16527 ft 368 kts 117°
2026-05-06 03:21 17.07515 -100.39427 16052 ft 362 kts 117°
2026-05-06 03:21 17.06373 -100.37111 15585 ft 355 kts 117°
2026-05-06 03:22 17.05251 -100.34836 15127 ft 349 kts 117°
2026-05-06 03:22 17.04141 -100.32583 14699 ft 347 kts 116°
2026-05-06 03:22 17.03037 -100.30344 14273 ft 346 kts 116°
2026-05-06 03:22 17.01937 -100.28116 13812 ft 344 kts 116°
2026-05-06 03:23 17.00840 -100.25895 13383 ft 343 kts 116°
2026-05-06 03:23 16.99753 -100.23693 12950 ft 342 kts 116°
2026-05-06 03:23 16.98733 -100.21455 12455 ft 341 kts 110°
2026-05-06 03:23 16.97950 -100.19113 11970 ft 341 kts 107°
2026-05-06 03:24 16.97256 -100.16755 11526 ft 339 kts 106°
2026-05-06 03:24 16.96575 -100.14392 11078 ft 339 kts 106°
2026-05-06 03:24 16.95890 -100.12062 10864 ft 331 kts 107°
2026-05-06 03:24 16.95217 -100.09821 10694 ft 322 kts 107°
2026-05-06 03:25 16.94546 -100.07621 10549 ft 313 kts 107°
2026-05-06 03:25 16.93887 -100.05479 10409 ft 305 kts 107°
2026-05-06 03:25 16.93243 -100.03397 10279 ft 297 kts 108°
2026-05-06 03:25 16.92616 -100.01376 10144 ft 289 kts 108°
2026-05-06 03:26 16.92021 -99.99460 10032 ft 282 kts 108°
2026-05-06 03:26 16.91418 -99.97523 9807 ft 279 kts 108°
2026-05-06 03:26 16.90819 -99.95599 9535 ft 278 kts 108°
2026-05-06 03:26 16.90221 -99.93680 9247 ft 278 kts 108°
2026-05-06 03:27 16.89624 -99.91760 8976 ft 277 kts 108°
2026-05-06 03:27 16.89026 -99.89844 8676 ft 277 kts 108°
2026-05-06 03:27 16.88438 -99.87960 8406 ft 277 kts 108°
2026-05-06 03:27 16.87841 -99.86047 8116 ft 277 kts 108°
2026-05-06 03:28 16.87244 -99.84132 7818 ft 277 kts 109°
2026-05-06 03:28 16.86646 -99.82219 7538 ft 277 kts 108°
2026-05-06 03:28 16.86047 -99.80304 7245 ft 277 kts 109°
2026-05-06 03:28 16.85448 -99.78387 6925 ft 277 kts 108°
2026-05-06 03:29 16.84853 -99.76485 6628 ft 275 kts 109°
2026-05-06 03:29 16.84258 -99.74587 6346 ft 275 kts 108°
2026-05-06 03:29 16.83663 -99.72691 6048 ft 272 kts 109°
2026-05-06 03:29 16.83083 -99.70841 5770 ft 265 kts 108°
2026-05-06 03:30 16.82515 -99.69028 5504 ft 259 kts 108°
2026-05-06 03:30 16.81969 -99.67279 5256 ft 255 kts 108°
2026-05-06 03:30 16.81416 -99.65513 5019 ft 258 kts 108°
2026-05-06 03:30 16.80847 -99.63699 4789 ft 269 kts 109°
2026-05-06 03:31 16.80256 -99.61815 4507 ft 275 kts 108°
2026-05-06 03:31 16.79663 -99.59929 4219 ft 273 kts 109°
2026-05-06 03:31 16.78736 -99.58250 4063 ft 265 kts 137°
2026-05-06 03:31 16.77198 -99.57280 3839 ft 259 kts 165°
2026-05-06 03:32 16.75427 -99.57089 3541 ft 257 kts 187°
2026-05-06 03:32 16.73701 -99.57525 3233 ft 255 kts 200°
2026-05-06 03:32 16.72056 -99.58218 2888 ft 254 kts 217°
2026-05-06 03:32 16.71070 -99.59635 2796 ft 239 kts 257°
2026-05-06 03:33 16.71173 -99.61303 2736 ft 228 kts 288°
2026-05-06 03:33 16.71692 -99.62815 2694 ft 215 kts 289°
2026-05-06 03:33 16.72191 -99.64239 2608 ft 202 kts 290°
2026-05-06 03:33 16.72687 -99.65630 2003 ft 211 kts 288°
2026-05-06 03:34 16.73126 -99.67122 1372 ft 214 kts 287°
2026-05-06 03:34 16.73594 -99.68548 1093 ft 199 kts 288°
2026-05-06 03:34 16.74014 -99.69895 654 ft 198 kts 285°
2026-05-06 03:34 16.74380 -99.71183 559 ft 177 kts 287°
2026-05-06 03:35 16.74768 -99.72380 267 ft 170 kts 288°
2026-05-06 03:35 16.75140 -99.73561 43 ft 173 kts 289°
2026-05-06 03:35 16.75473 -99.74659 154 ft 139 kts 287°
2026-05-06 03:35 16.75787 -99.75596 258 ft 153 kts 288°
2026-05-06 03:36 16.76163 -99.76835 660 ft 202 kts 285°
2026-05-06 03:36 16.76543 -99.78342 1324 ft 223 kts 284°
2026-05-06 03:36 16.76923 -99.79936 1922 ft 217 kts 283°
2026-05-06 03:36 16.77271 -99.81433 2354 ft 214 kts 283°
2026-05-06 03:37 16.77633 -99.83036 1924 ft 240 kts 282°
2026-05-06 03:37 16.78024 -99.84774 1563 ft 253 kts 283°
2026-05-06 03:37 16.78514 -99.86613 770 ft 272 kts 284°
2026-05-06 03:37 16.78515 -99.88566 428 ft 265 kts 247°
2026-05-06 03:38 16.77437 -99.89941 857 ft 234 kts 210°
2026-05-06 03:38 16.75940 -99.90256 1160 ft 216 kts 170°
2026-05-06 03:38 16.74451 -99.90034 1639 ft 224 kts 182°
2026-05-06 03:38 16.72812 -99.89946 2129 ft 249 kts 174°
2026-05-06 03:39 16.71018 -99.89665 2603 ft 273 kts 172°
2026-05-06 03:39 16.69079 -99.89339 3048 ft 287 kts 173°
2026-05-06 03:39 16.67079 -99.89015 3478 ft 293 kts 173°
2026-05-06 03:39 16.65062 -99.88700 3889 ft 293 kts 172°
2026-05-06 03:40 16.63155 -99.88002 3936 ft 292 kts 145°
2026-05-06 03:40 16.61919 -99.86451 3968 ft 279 kts 114°
2026-05-06 03:40 16.61399 -99.84561 3990 ft 265 kts 98°
2026-05-06 03:40 16.61363 -99.82689 3991 ft 252 kts 86°
2026-05-06 03:41 16.61466 -99.80906 3984 ft 241 kts 86°
2026-05-06 03:41 16.61576 -99.79159 4004 ft 247 kts 85°
2026-05-06 03:41 16.61694 -99.77239 4048 ft 281 kts 86°
2026-05-06 03:41 16.61810 -99.75213 4010 ft 287 kts 86°
2026-05-06 03:42 16.61921 -99.73143 3990 ft 284 kts 86°
2026-05-06 03:42 16.62025 -99.71096 3985 ft 282 kts 86°
2026-05-06 03:42 16.62128 -99.69083 3996 ft 280 kts 86°
2026-05-06 03:42 16.62230 -99.67098 4018 ft 268 kts 86°
2026-05-06 03:43 16.62327 -99.65191 3989 ft 260 kts 86°
2026-05-06 03:43 16.62455 -99.63321 3987 ft 259 kts 78°
2026-05-06 03:43 16.63216 -99.61651 3982 ft 257 kts 47°
2026-05-06 03:43 16.64661 -99.60623 3713 ft 247 kts 19°
2026-05-06 03:44 16.66225 -99.60067 3599 ft 229 kts 16°
2026-05-06 03:44 16.67687 -99.59582 3462 ft 212 kts 15°
2026-05-06 03:44 16.69072 -99.59406 3313 ft 192 kts 345°
2026-05-06 03:44 16.70232 -99.59947 3108 ft 180 kts 320°
2026-05-06 03:45 16.70972 -99.60962 2783 ft 175 kts 292°
2026-05-06 03:45 16.71466 -99.62119 2435 ft 174 kts 294°
2026-05-06 03:45 16.71925 -99.63284 2051 ft 172 kts 289°
2026-05-06 03:45 16.72309 -99.64461 1823 ft 170 kts 287°
2026-05-06 03:46 16.72663 -99.65597 1571 ft 157 kts 287°
2026-05-06 03:46 16.72993 -99.66655 1354 ft 151 kts 287°
2026-05-06 03:46 16.73314 -99.67688 1168 ft 151 kts 287°
2026-05-06 03:46 16.73638 -99.68731 964 ft 151 kts 287°
2026-05-06 03:47 16.73963 -99.69778 772 ft 151 kts 287°
2026-05-06 03:47 16.74289 -99.70815 525 ft 152 kts 287°
2026-05-06 03:47 16.74622 -99.71863 322 ft 149 kts 286°
2026-05-06 03:47 16.74925 -99.72885 168 ft 150 kts 287°
2026-05-06 03:48 16.75254 -99.73925 28 ft 148 kts 287°
2026-05-06 03:48 16.75541 -99.74847 17 ft 120 kts 287°
2026-05-06 03:48 16.75771 -99.75585 20 ft 84 kts 288°
2026-05-06 03:48 16.75916 -99.76040 18 ft 48 kts 288°
2026-05-06 03:49 16.76045 -99.76257 18 ft 22 kts 333°
2026-05-06 03:49 16.76160 -99.76203 16 ft 19 kts 81°
2026-05-06 03:49 16.76129 -99.76074 16 ft 18 kts 106°
2026-05-06 03:49 16.76090 -99.75953 18 ft 17 kts 108°
2026-05-06 03:50 16.76056 -99.75842 17 ft 10 kts 105°
2026-05-06 03:50 16.76076 -99.75778 18 ft 10 kts 57°
2026-05-06 03:50 16.76084 -99.75712 16 ft 10 kts 103°
2026-05-06 03:50 16.76057 -99.75624 18 ft 16 kts 110°
2026-05-06 03:51 16.76035 -99.75528 19 ft 10 kts 64°
2026-05-06 03:51 16.76083 -99.75504 18 ft 7 kts 19°
2026-05-06 03:51 16.76119 -99.75492 16 ft 0 kts 18°
2026-05-06 03:51 16.76123 -99.75491 16 ft 0 kts 18°